Temp
16 16 17 17 17 18 18 18 18 19 19 19 19 20 20 20 21 21 21 22 22 22 22 22 22 23 25 26 28 29 29 29 32 33 27 30 33 32 31 30 30 29 26 24 24
16 16 17 17 18 18 18 18 19 19 19 19 20 20 20 21 21 21 22 22 22 23 23 23 24 24 25 27 28 30 29 30 33 34 33 33 33 32 31 31 30 28 26 25 24
16 17 17 17 18 18 18 19 19 19 19 19 20 20 20 21 20 24 23 23 23 23 24 24 26 26 27 28 29 30 29 32 33 34 34 32 33 30 31 31 26 27 25 25 25
16 17 17 17 18 18 19 19 19 19 20 20 20 21 21 20 26 24 24 23 23 24 23 25 27 28 29 29 30 30 31 31 32 33 33 34 33 33 32 26 23 21 25 25 25
16 16 17 17 18 18 19 19 19 19 20 20 20 21 21 20 24 24 24 24 24 23 23 25 27 28 29 30 31 31 32 31 32 32 32 32 33 32 32 24 23 20 25 26 26
16 17 17 18 18 19 19 19 19 19 20 20 20 20 20 22 25 23 24 24 23 23 25 26 27 28 29 30 31 31 31 32 32 32 32 32 32 32 32 27 20 23 25 26 26
16 17 17 18 19 19 19 19 19 19 19 20 20 20 18 24 24 24 23 23 25 25 26 27 28 28 29 29 30 31 31 32 32 32 32 32 31 31 32 32 30 28 27 26 26
16 17 18 18 19 20 20 19 19 19 19 20 20 20 22 24 24 24 24 25 25 25 25 26 27 27 28 29 30 30 30 29 32 32 32 32 30 32 32 32 30 29 28 27 27
16 17 18 19 20 20 20 20 20 20 20 20 20 21 25 24 24 24 25 25 25 25 25 25 26 27 28 28 29 30 28 29 31 33 32 31 30 32 32 32 31 21 22 28 26
17 18 19 20 20 20 20 20 21 21 20 20 20 21 24 26 25 25 25 25 25 26 26 25 26 27 29 29 27 30 29 31 31 33 32 31 31 32 32 33 31 30 29 28 27
18 18 19 20 20 20 21 21 20 19 19 24 25 26 26 26 24 24 25 25 26 26 27 27 27 28 29 30 31 30 30 30 32 33 32 31 31 32 32 32 31 30 29 29 28
18 18 19 20 20 20 21 21 21 22 23 25 25 25 25 26 26 26 25 26 26 27 28 29 27 30 31 30 29 29 29 29 31 32 31 30 30 31 32 32 31 30 30 29 27
18 18 19 20 20 20 21 21 21 21 23 26 26 27 26 25 27 27 26 26 28 28 29 28 30 30 29 29 28 29 28 29 30 31 31 30 29 30 32 32 30 30 30 29 27
17 18 19 20 20 22 22 21 21 21 23 27 27 27 25 26 27 28 27 27 28 28 29 29 30 29 28 28 29 28 30 30 29 29 28 31 27 30 31 31 31 30 30 30 29
18 19 19 20 21 22 21 21 21 21 23 28 28 27 27 28 28 27 27 27 27 28 29 29 29 28 28 29 30 28 30 29 29 29 28 29 28 30 31 30 31 31 30 30 30
18 18 19 19 19 21 21 21 21 23 24 27 28 28 28 28 28 28 27 27 28 28 29 29 30 30 29 30 29 29 29 28 28 28 26 28 28 29 31 31 31 32 32 31 30
18 18 19 19 20 21 21 22 23 24 28 27 28 28 29 28 28 29 27 27 26 26 27 28 29 30 29 28 29 29 27 25 26 26 26 29 29 29 32 33 32 32 31 32 27
18 18 19 19 19 20 20 23 22 28 27 28 28 28 27 28 28 28 28 27 28 27 26 26 25 26 30 28 28 28 28 26 25 26 26 29 28 29 32 33 32 32 32 28 27
18 18 18 19 19 19 21 23 26 27 28 27 28 26 27 27 27 27 28 25 25 27 25 25 22 28 29 29 29 28 27 28 27 28 27 29 27 29 30 31 30 32 31 28 20
18 17 20 20 19 19 22 22 25 26 26 26 25 27 26 27 26 27 27 27 26 26 26 26 24 28 28 29 29 28 29 26 27 23 24 27 28 26 26 25 26 28 29 22 21
17 20 20 20 20 21 22 25 27 25 24 25 25 26 26 26 26 27 27 25 25 25 25 25 25 25 27 27 27 26 20 17 25 24 23 23 26 25 22 27 25 24 21 20 21
16 22 20 20 21 23 24 25 23 24 23 24 24 25 25 25 25 25 26 23 23 23 24 25 23 22 24 27 28 27 26 26 24 23 20 15 16 23 24 22 23 22 23 19 19
16 20 21 20 22 24 25 24 23 24 23 24 23 24 25 24 23 24 25 22 22 23 21 21 23 22 23 26 27 26 26 24 26 24 23 23 24 29 25 26 24 23 23 21 18
15 21 22 21 22 21 22 23 23 21 22 22 23 23 23 22 24 23 24 23 21 22 19 19 20 21 21 23 24 24 18 15 24 23 23 24 25 27 27 27 26 23 23 23 23
16 20 17 21 21 20 21 22 22 22 21 21 21 22 22 21 22 23 23 23 22 19 20 20 19 21 22 23 24 24 24 24 24 24 23 24 25 26 26 26 26 23 22 22 22
15 15 15 18 19 19 16 20 21 22 22 21 20 21 22 20 21 21 21 22 22 21 21 21 18 19 20 22 23 22 23 24 24 24 24 24 24 27 27 26 23 22 21 21 20
12 13 14 17 19 19 20 20 20 20 20 20 19 19 20 19 17 17 17 17 18 18 19 19 19 18 18 21 22 21 23 23 24 25 24 24 25 27 25 23 21 20 19 19 18
Height
1526 1523 1521 1519 1518 1516 1514 1512 1511 1509 1508 1507 1506 1504 1502 1499 1497 1494 1494 1496 1494 1493 1494 1496 1497 1500 1502 1500 1498 1496 1494 1491 1473 1462 1475 1468 1467 1471 1474 1479 1483 1486 1492 1504 1511
1524 1522 1520 1518 1516 1514 1512 1510 1508 1507 1505 1505 1503 1503 1499 1497 1494 1491 1492 1492 1492 1493 1493 1496 1498 1500 1500 1498 1495 1492 1489 1482 1464 1460 1462 1461 1464 1468 1476 1477 1484 1491 1498 1505 1511
1523 1521 1519 1517 1515 1512 1509 1507 1506 1504 1503 1502 1501 1500 1498 1496 1494 1488 1490 1490 1490 1491 1492 1495 1496 1497 1496 1493 1490 1487 1486 1474 1464 1462 1460 1463 1466 1471 1477 1476 1492 1495 1503 1504 1511
1522 1520 1518 1516 1513 1510 1508 1505 1503 1502 1501 1500 1499 1498 1497 1497 1490 1489 1490 1490 1489 1490 1492 1494 1493 1491 1491 1488 1486 1484 1479 1475 1469 1464 1462 1461 1464 1467 1470 1479 1485 1508 1507 1504 1509
1522 1520 1517 1514 1511 1509 1506 1503 1501 1500 1499 1498 1497 1496 1497 1496 1492 1489 1489 1490 1489 1490 1493 1494 1493 1490 1486 1483 1480 1478 1475 1474 1470 1467 1466 1467 1466 1467 1468 1476 1485 1497 1503 1502 1508
1521 1518 1515 1512 1510 1507 1504 1502 1500 1499 1497 1497 1496 1496 1496 1497 1490 1489 1489 1490 1491 1492 1492 1492 1490 1489 1485 1480 1476 1472 1473 1471 1469 1466 1465 1469 1469 1468 1471 1471 1484 1482 1489 1496 1505
1520 1517 1514 1511 1508 1505 1503 1501 1499 1498 1496 1496 1496 1495 1495 1493 1491 1490 1490 1490 1491 1491 1490 1489 1488 1487 1485 1482 1478 1473 1472 1469 1469 1467 1466 1467 1470 1469 1470 1470 1473 1477 1487 1495 1501
1519 1516 1513 1510 1507 1504 1502 1500 1498 1496 1495 1495 1495 1495 1492 1490 1490 1490 1491 1491 1491 1491 1491 1490 1489 1489 1485 1480 1475 1474 1472 1479 1463 1463 1465 1468 1476 1464 1465 1466 1473 1476 1476 1493 1495
1518 1515 1512 1509 1505 1503 1501 1499 1497 1496 1495 1495 1496 1496 1489 1487 1488 1489 1490 1490 1490 1490 1490 1490 1490 1488 1484 1482 1479 1473 1483 1473 1464 1453 1457 1464 1472 1463 1459 1459 1467 1473 1491 1487 1494
1516 1513 1510 1508 1505 1502 1500 1499 1498 1496 1496 1495 1495 1500 1489 1484 1486 1488 1489 1489 1489 1489 1489 1489 1487 1484 1479 1477 1487 1470 1470 1461 1462 1447 1451 1461 1464 1462 1457 1449 1461 1473 1477 1478 1478
1515 1512 1510 1507 1505 1502 1500 1498 1500 1498 1494 1489 1487 1485 1483 1485 1487 1488 1488 1489 1487 1488 1484 1484 1484 1481 1470 1465 1461 1462 1462 1460 1449 1443 1451 1456 1460 1456 1457 1456 1459 1465 1467 1466 1477
1514 1511 1508 1506 1505 1503 1501 1500 1501 1501 1492 1487 1487 1485 1484 1484 1483 1485 1488 1488 1485 1483 1477 1476 1481 1467 1461 1462 1466 1468 1471 1468 1455 1448 1457 1461 1461 1455 1452 1453 1459 1463 1465 1463 1465
1513 1510 1508 1506 1505 1504 1503 1503 1501 1499 1493 1483 1483 1482 1482 1485 1480 1481 1486 1485 1480 1478 1471 1476 1467 1465 1468 1471 1475 1473 1474 1468 1466 1453 1453 1463 1464 1454 1449 1450 1456 1460 1464 1466 1469
1513 1510 1507 1506 1506 1505 1504 1503 1501 1499 1494 1478 1480 1479 1482 1481 1479 1478 1481 1482 1477 1475 1469 1468 1462 1465 1472 1474 1468 1477 1460 1461 1464 1466 1476 1454 1481 1452 1446 1446 1448 1453 1458 1462 1463
1511 1508 1506 1505 1505 1504 1505 1502 1500 1500 1502 1471 1473 1476 1477 1476 1475 1478 1479 1480 1477 1471 1470 1469 1465 1470 1473 1468 1463 1471 1459 1463 1465 1468 1469 1464 1471 1451 1437 1446 1440 1442 1447 1452 1456
1510 1508 1506 1506 1505 1506 1503 1502 1501 1501 1495 1472 1469 1470 1472 1470 1471 1475 1478 1479 1476 1472 1465 1466 1462 1464 1465 1462 1464 1465 1467 1468 1468 1469 1484 1464 1465 1457 1441 1435 1433 1438 1441 1443 1447
1509 1507 1505 1505 1505 1504 1503 1502 1499 1495 1468 1470 1469 1468 1463 1466 1468 1469 1474 1479 1479 1482 1477 1465 1464 1461 1465 1469 1463 1467 1476 1490 1487 1481 1477 1454 1455 1448 1429 1425 1429 1432 1436 1435 1439
1508 1505 1504 1503 1504 1504 1502 1499 1504 1466 1468 1468 1470 1468 1472 1467 1467 1467 1470 1473 1469 1473 1477 1480 1483 1474 1459 1466 1468 1465 1469 1482 1496 1484 1480 1448 1460 1444 1422 1424 1427 1430 1433 1436 1439
1507 1504 1502 1503 1503 1503 1502 1495 1481 1469 1467 1473 1469 1476 1472 1472 1474 1471 1469 1478 1480 1478 1488 1484 1491 1468 1464 1464 1466 1466 1470 1457 1469 1458 1465 1450 1450 1437 1429 1432 1435 1432 1435 1435 1443
1505 1503 1502 1501 1502 1502 1498 1491 1478 1477 1479 1478 1481 1469 1473 1467 1477 1475 1470 1472 1478 1481 1481 1480 1489 1466 1465 1465 1464 1465 1460 1476 1466 1496 1493 1460 1451 1462 1448 1450 1447 1439 1440 1449 1449
1506 1501 1499 1501 1501 1500 1493 1476 1472 1480 1485 1483 1478 1476 1475 1473 1476 1473 1473 1481 1482 1483 1486 1482 1483 1482 1468 1467 1470 1470 1490 1508 1481 1483 1499 1497 1470 1454 1462 1458 1463 1463 1462 1459 1455
1506 1497 1498 1499 1499 1490 1483 1479 1481 1483 1487 1485 1485 1481 1480 1477 1481 1479 1478 1485 1490 1490 1491 1487 1490 1497 1482 1466 1465 1464 1471 1476 1488 1491 1497 1524 1505 1472 1458 1465 1470 1469 1465 1467 1461
1507 1499 1496 1497 1492 1482 1477 1481 1486 1485 1488 1485 1485 1484 1482 1485 1492 1485 1479 1490 1494 1492 1499 1499 1493 1501 1487 1472 1466 1469 1466 1472 1467 1474 1488 1492 1481 1447 1456 1460 1460 1462 1463 1465 1465
1509 1494 1490 1493 1490 1490 1485 1484 1486 1492 1492 1491 1488 1485 1489 1490 1486 1489 1484 1487 1494 1497 1503 1504 1501 1504 1504 1485 1484 1481 1490 1501 1475 1485 1482 1475 1467 1456 1452 1453 1457 1456 1457 1459 1466
1508 1498 1501 1489 1491 1494 1492 1487 1485 1487 1493 1493 1492 1490 1491 1494 1489 1485 1484 1486 1491 1496 1501 1504 1506 1498 1492 1485 1479 1476 1475 1476 1477 1474 1481 1471 1465 1459 1455 1455 1458 1459 1462 1464 1466
1512 1509 1506 1500 1498 1498 1496 1492 1489 1487 1488 1492 1494 1490 1489 1495 1493 1493 1490 1487 1486 1494 1496 1498 1505 1500 1497 1488 1483 1482 1475 1472 1470 1469 1468 1466 1462 1457 1456 1456 1460 1465 1465 1465 1468
1515 1514 1512 1502 1496 1495 1490 1489 1489 1490 1492 1496 1497 1497 1494 1499 1503 1502 1503 1501 1501 1500 1498 1499 1501 1504 1502 1488 1482 1483 1474 1467 1463 1460 1461 1465 1455 1452 1454 1460 1465 1469 1469 1466 1464
Wind_Speed
9 9 10 11 11 12 12 12 12 12 12 12 13 13 13 15 14 17 10 8 9 13 10 5 11 14 15 17 20 21 13 14 22 20 15 24 9 10 6 11 8 10 25 27 25
9 10 11 11 12 13 13 12 13 13 11 12 11 12 12 16 17 15 12 14 12 10 7 9 12 14 18 20 21 19 13 20 22 11 8 7 4 15 8 10 14 22 27 27 26
11 12 12 12 13 14 14 13 13 12 11 11 10 11 11 14 12 1 8 5 5 8 10 9 11 14 18 20 23 23 17 21 25 21 14 19 5 13 16 15 14 18 25 27 25
12 13 13 14 14 15 14 13 13 12 10 9 9 9 9 9 2 4 3 2 2 11 8 9 14 17 16 16 23 20 23 25 27 27 8 11 3 6 4 9 32 6 23 26 25
13 13 14 15 15 15 14 12 9 9 8 8 8 7 7 7 11 3 4 1 4 9 10 10 13 15 15 19 20 18 18 23 24 24 6 14 15 5 9 21 20 37 26 26 24
14 15 15 15 16 15 12 9 9 5 4 4 6 6 6 10 1 2 6 3 4 7 8 11 12 13 17 18 17 18 20 23 25 18 16 11 16 4 12 22 46 35 31 25 23
15 15 15 15 16 14 9 9 7 3 2 1 4 6 8 12 2 6 8 6 6 7 9 9 13 13 11 13 18 20 17 11 19 19 16 10 14 14 16 17 16 30 24 26 24
16 15 15 15 15 10 9 10 7 3 1 2 3 5 7 5 4 7 8 6 6 6 7 8 10 12 17 17 13 13 15 14 18 18 19 15 15 16 19 19 22 24 25 27 27
16 16 15 14 13 8 9 6 4 3 1 3 2 3 9 3 9 10 9 6 5 5 6 7 9 14 16 13 11 12 12 19 18 20 17 12 17 16 21 25 20 32 42 24 26
17 16 15 13 11 8 7 3 2 5 2 3 4 9 10 4 8 8 10 7 6 5 5 7 9 10 13 12 13 10 18 13 15 15 14 13 15 14 26 26 19 10 19 24 25
16 15 14 12 7 7 8 5 4 4 8 10 6 9 6 3 3 8 10 9 9 7 11 12 10 12 14 17 19 10 15 14 8 8 3 8 11 16 18 10 8 12 17 15 20
16 14 13 10 3 4 7 5 6 7 9 7 3 6 5 4 7 9 10 9 10 11 12 10 12 15 12 6 10 10 14 14 15 7 2 10 14 14 14 15 15 17 19 24 28
16 14 11 8 4 4 4 5 8 8 7 11 5 2 3 10 9 14 13 14 11 11 13 9 11 4 3 7 10 12 13 14 14 14 10 10 16 16 13 18 20 19 20 24 31
17 13 9 3 4 5 4 8 8 6 5 12 10 6 8 10 6 7 10 16 9 12 14 9 13 5 5 9 11 11 14 15 12 13 10 13 11 15 13 14 17 24 24 24 26
17 12 6 3 3 6 8 8 5 2 5 6 7 5 12 8 10 12 8 12 13 16 5 14 7 5 11 13 10 11 8 8 10 11 14 17 11 15 9 18 20 18 27 30 30
16 11 4 3 3 5 8 7 4 5 3 8 5 8 13 15 8 7 6 12 13 13 11 14 8 5 9 11 3 12 9 9 12 12 12 17 15 16 15 11 9 11 16 28 32
15 9 6 6 4 9 9 6 6 8 2 6 6 6 6 5 9 7 9 8 11 7 9 10 13 12 8 11 11 11 9 9 11 11 14 10 16 13 14 9 12 12 26 24 23
14 8 7 9 6 10 7 8 8 5 2 5 3 3 7 6 7 6 6 11 10 7 11 9 15 9 6 5 12 10 13 9 15 13 8 15 8 2 7 4 8 12 9 14 13
13 6 5 3 7 6 10 8 8 10 5 3 7 9 9 5 6 4 9 11 4 8 6 9 15 11 10 5 10 14 12 13 11 17 13 13 3 11 10 5 14 10 14 3 6
15 6 11 5 6 5 8 14 10 4 6 4 11 5 9 11 6 8 9 5 2 5 11 13 11 8 7 5 11 14 14 10 7 8 13 14 7 11 14 13 19 24 21 26 26
10 8 4 4 5 9 9 8 4 9 5 3 8 5 9 5 4 12 1 8 4 5 10 13 8 14 15 8 10 5 4 11 4 5 7 11 7 16 20 14 12 24 30 19 19
6 5 3 1 9 12 12 11 2 1 2 5 5 9 8 4 6 8 6 10 6 5 8 8 5 9 17 22 18 16 7 11 7 5 3 5 10 6 11 11 22 25 30 13 14
8 14 4 3 6 8 5 5 2 3 8 4 4 5 2 5 3 10 7 11 7 5 6 11 3 8 11 13 10 10 12 16 5 5 11 11 9 10 5 3 8 5 16 9 10
7 4 9 7 9 7 11 5 7 2 10 4 10 3 6 8 9 5 6 8 7 4 7 5 5 9 12 19 17 15 4 14 14 7 12 14 18 17 15 12 11 15 24 23 21
6 2 4 5 7 8 7 9 10 6 8 4 7 10 9 9 12 12 12 6 9 13 4 3 8 13 16 20 21 21 20 16 18 16 15 18 20 17 15 14 12 18 21 20 20
6 6 10 15 8 8 4 8 11 12 1 6 9 11 6 6 9 12 13 8 4 9 6 8 8 9 14 17 19 22 22 22 20 20 21 20 22 16 19 14 17 17 20 15 20
8 7 7 10 8 7 9 9 9 5 5 4 9 9 10 4 8 9 8 9 10 8 9 8 8 9 16 16 17 18 17 21 22 20 20 18 18 13 9 15 18 19 18 18 21
Wind_Direction
335 335 332 324 318 313 309 305 301 294 294 294 294 300 303 302 299 291 276 242 263 260 264 230 217 225 232 246 239 243 254 268 267 276 146 212 198 146 152 116 159 88 139 147 150
344 340 336 328 323 319 315 312 301 294 292 290 293 293 303 304 303 277 256 260 254 245 211 201 215 217 229 236 243 237 251 252 269 314 158 106 254 151 158 162 129 110 123 143 151
347 340 336 329 325 324 318 313 305 299 293 287 286 288 300 305 311 158 206 241 248 207 191 232 218 215 228 231 232 241 243 264 269 309 284 119 240 149 220 185 50 130 143 151 156
344 339 333 331 329 325 316 313 307 304 293 283 275 278 288 299 330 152 204 233 209 176 191 243 237 233 234 236 234 235 246 253 277 292 306 290 320 202 265 146 139 206 161 156 162
338 336 333 332 329 322 318 318 320 307 289 272 258 257 270 272 252 247 199 206 181 182 209 227 235 243 234 244 238 237 249 254 262 280 292 298 286 246 241 154 141 180 175 161 167
335 334 334 333 329 326 324 328 323 311 300 264 242 244 248 250 98 249 195 183 174 187 216 222 230 242 267 259 262 245 240 253 262 268 265 248 268 238 258 147 160 162 172 160 173
336 335 335 331 331 332 326 330 323 319 307 227 230 235 247 257 239 207 188 182 205 225 257 239 246 271 254 278 256 268 273 261 244 263 266 235 245 249 239 232 174 156 158 168 179
335 335 335 334 336 335 330 331 319 288 246 206 216 240 278 198 184 189 188 218 212 240 257 270 250 257 261 273 274 251 248 259 253 232 244 235 252 233 242 235 191 194 158 176 177
335 335 336 336 338 334 333 341 18 118 144 179 159 264 255 251 206 199 202 201 217 236 252 255 238 242 241 246 260 230 247 233 249 235 215 199 248 262 262 220 221 146 219 184 180
338 337 337 337 334 339 338 329 19 114 155 174 207 258 237 240 163 200 209 227 220 227 218 216 219 230 234 232 240 231 213 226 261 244 179 224 235 242 264 260 202 208 185 180 165
341 336 334 338 333 2 2 337 308 245 216 269 147 259 152 162 195 204 197 206 206 215 236 193 221 224 232 217 254 334 301 312 256 217 297 209 252 251 247 172 198 217 204 179 172
341 337 335 338 346 39 14 337 13 329 297 217 261 235 255 234 213 195 191 212 216 235 210 218 230 255 259 357 337 310 280 281 298 311 52 288 266 244 238 205 210 235 236 214 161
341 337 334 339 26 29 10 326 330 328 263 192 209 275 199 192 217 178 195 219 237 244 260 262 284 70 354 296 259 268 268 277 265 286 182 251 267 263 232 218 185 209 228 212 179
337 334 331 336 21 346 250 331 332 314 272 153 199 156 144 192 222 163 200 225 234 256 265 254 267 43 267 251 267 259 253 234 274 288 268 221 255 248 226 227 188 197 207 230 205
336 333 318 324 286 315 304 325 308 313 261 151 124 133 161 213 128 187 214 231 264 279 250 270 218 261 247 247 256 253 355 334 288 270 265 268 266 267 236 216 219 211 203 212 223
334 326 301 334 319 327 325 308 324 234 240 148 166 203 187 209 185 129 212 230 281 287 281 272 308 281 298 319 329 299 310 259 265 260 258 248 254 268 261 237 199 226 229 219 210
328 314 267 225 289 310 315 292 248 252 124 154 204 221 236 144 183 196 176 209 250 245 242 274 262 230 217 269 238 219 249 263 253 229 239 324 242 235 253 253 205 194 228 242 143
327 305 260 245 275 300 308 257 262 330 89 31 325 211 250 174 226 226 223 227 208 290 306 287 250 296 294 240 295 328 244 259 280 301 337 284 265 298 281 265 261 262 276 156 128
326 309 298 271 281 292 278 240 261 340 40 294 191 267 207 217 284 255 230 75 44 339 336 327 347 206 220 274 300 293 263 341 309 276 274 269 173 274 239 332 347 284 291 318 128
329 283 247 243 274 280 259 259 299 30 346 276 275 228 275 182 183 229 256 82 124 10 338 305 313 280 211 240 266 255 293 293 284 339 302 294 320 50 5 40 10 341 10 62 62
325 263 169 250 264 257 249 256 199 94 332 273 282 297 269 327 256 298 24 102 40 3 332 308 305 297 305 265 329 323 9 334 308 298 307 301 338 35 24 13 30 27 41 54 52
296 269 151 258 248 232 242 341 113 101 220 272 290 308 303 320 291 282 294 65 59 1 305 11 338 300 295 307 311 300 265 270 290 276 113 144 280 248 90 306 41 18 6 42 59
300 288 235 230 255 256 175 209 315 248 269 258 248 260 282 275 251 258 293 101 48 24 31 352 268 281 278 257 285 283 323 329 280 323 275 270 267 308 139 59 78 26 9 63 109
293 284 192 218 269 290 320 252 194 197 306 303 300 337 269 249 255 264 254 145 112 74 50 347 279 278 282 302 311 300 102 297 270 280 289 284 304 312 326 352 9 18 23 2 353
254 2 5 305 54 339 342 309 302 181 207 243 264 248 259 262 266 246 225 217 173 161 190 235 268 275 276 284 292 291 289 287 284 280 274 284 286 297 314 328 19 19 5 354 353
324 353 345 292 280 286 262 269 263 264 193 234 231 287 261 267 287 305 349 330 306 142 190 223 260 281 280 281 282 283 285 284 279 276 277 280 279 290 291 300 36 15 347 1 351
346 312 293 295 270 255 256 263 252 300 306 305 324 311 269 13 349 324 328 318 314 317 289 269 253 274 271 280 282 270 264 266 268 269 269 267 272 291 358 45 27 23 24 359 351